www.pogodaiklimat.ru

Погода и климат >> Архив погоды >> Россия >> Ростовская область >> Шахты


АРХИВ ПОГОДЫ в Шахтах

Время (UTC), дата Ветер
(напр.,м/с)
 
Видим.   Явления Облачность Т
(С)
Тd
(С)
f
(%)
Тe
(С)
Тes
(С)
Комфортность P
(гПа)
Po
(гПа)
Тmin
(С)
Tmax
(С)
R
(мм)
R24
(мм)
S
(см)
09 12.07 ЮЗ 1 20 км 8/8 1000 м
[Cu med, cong]
+23.6 +12.2 49 +25 +30 комфорт 1006.7 993.2
12 12.07 ЮЗ 1 10 км гроза без осадков {ливн. осадки} 8/8 600 м
[Cb cap Ac trans]
+21.5 +15.7 70 +25 +28 комфорт 1006.5 992.9
15 12.07 Ю 1 20 км {гроза, ливн. осадки} 3/1 600 м
[Cb cap Ac trans]
+20.8 +15.4 71 +25 +27 комфорт 1007.5 993.9 +24.8 12
18 12.07 штиль 0 10 км {гроза, ливн. осадки} 4/0
[Ci fib]
+15.0 +14.8 99 +15 +15 очень
холодно
1008.7 994.8
21 12.07 штиль 0 4000 м дымка 3/0
[Ac trans]
+14.2 +14.2 100 +14 +14 очень
холодно
1008.7 994.7
00 13.07 штиль 0 1000 м дымка ясно +12.9 +12.9 100 +12 +12 очень
холодно
1007.9 993.9
03 13.07 штиль 0 4000 м дымка 8/3 600 м
[Sc Ac trans Ci fib]
+14.4 +14.4 100 +14 +15 очень
холодно
1007.9 994.0 +11.9
06 13.07 штиль 0 20 км 10/8 1000 м
[Sc As trans]
+19.0 +15.3 79 +20 +21 холодно 1008.4 994.7
09 13.07 ЮЗ 1 10 км слаб. ливневой дождь 10/10 600 м
[Cb cap]
+16.7 +14.1 85 +18 +18 очень
холодно
1009.8 996.0
12 13.07 З 2 20 км {ливн. осадки} 8/3 1000 м
[Sc diur, vesp As op]
+20.4 +13.2 63 +23 +27 комфорт 1008.7 995.0
15 13.07 ЮЗ 1 20 км 8/3 1000 м
[Sc Ac trans]
+20.5 +11.5 56 +23 +25 комфорт 1009.1 995.4 +21.8 1
18 13.07 штиль 0 10 км 4/0
[Ac trans]
+14.9 +12.9 88 +15 +15 очень
холодно
1010.2 996.2
21 13.07 штиль 0 4000 м дымка ясно +12.8 +12.5 98 +12 +12 очень
холодно
1010.3 996.2
00 14.07 штиль 0 1000 м дымка ясно +11.8 +11.8 100 +11 +11 очень
холодно
1010.2 996.1
03 14.07 штиль 0 2000 м дымка 4/0
[Ac trans]
+13.0 +13.0 100 +12 +13 очень
холодно
1010.4 996.3 +10.9
06 14.07 З 1 20 км 3/0
[Cc]
+21.6 +13.8 61 +24 +36 комфорт 1009.9 996.3
09 14.07 ЮЗ 1 20 км 8/8 1000 м
[Cu med, cong]
+26.0 +10.1 37 +27 +31 жарко 1009.0 995.6
12 14.07 штиль 0 20 км гроза, ливневой дождь 10/10 600 м
[Cb calv]
+17.4 +17.4 100 +17 +17 очень
холодно
1009.2 995.4
15 14.07 штиль 0 20 км 8/3 1000 м
[Sc Ac trans]
+21.8 +13.5 59 +25 +26 комфорт 1009.3 995.5 +26.6 11
18 14.07 штиль 0 10 км {гроза} 3/3 1000 м
[Sc diur, vesp]
+15.6 +14.3 92 +15 +15 очень
холодно
1009.4 995.5
21 14.07 штиль 0 4000 м дымка ясно +13.6 +13.4 99 +13 +13 очень
холодно
1009.4 995.5
00 15.07 штиль 0 1000 м дымка ясно +11.9 +11.9 100 +11 +11 очень
холодно
1008.7 994.7
03 15.07 В 1 20 км ясно +14.6 +12.6 88 +15 +16 очень
холодно
1008.5 994.6 +11.3
06 15.07 В 4 20 км ясно +23.8 +12.2 48 +26 +32 жарко 1008.0 994.5
09 15.07 В 2 20 км ясно +27.5 +9.4 32 +28 +45 жарко 1007.4 994.1
12 15.07 В 3 20 км 4/1 1000 м
[Sc Ac trans]
+28.2 +8.9 30 +28 +35 жарко 1006.0 992.7
15 15.07 В 2 20 км 4/0
[Ac trans]
+27.2 +9.0 32 +27 +29 жарко 1005.7 992.4 +28.9
18 15.07 В 1 10 км 3/0
[Ci fib]
+20.7 +14.1 66 +24 +24 комфорт 1006.4 992.8
21 15.07 З 2 10 км слаб. ливневой дождь 10/10 600 м
[Cb cap]
+17.6 +16.1 91 +18 +18 прохладно 1007.7 994.0
00 16.07 СВ 3 10 км слаб. ливневой дождь 10/10 600 м
[Cb cap]
+16.9 +16.7 99 +17 +17 прохладно 1007.5 993.7
03 16.07 В 3
{11}
4000 м дымка {ливн. осадки} 10/10 600 м
[Cb cap]
+16.3 +16.0 98 +16 +16 холодно 1006.1 992.3 +15.8 9
06 16.07 В 4 10 км {ливн. осадки} 10/10 600 м
[Cb cap]
+18.7 +17.5 93 +20 +20 холодно 1006.1 992.4
09 16.07 ЮВ 2 10 км слаб. ливневой дождь 10/8 600 м
[Cb cap As op]
+20.9 +17.8 82 +26 +26 душно 1005.5 991.9
12 16.07 Ю 2 20 км {ливн. осадки} 9/8 600 м
[Cb cap Ac trans]
+24.5 +15.9 59 +28 +29 душно 1003.8 990.4
15 16.07 ЮВ 2 10 км слаб. ливневой дождь 10/10 600 м
[Cb cap]
+20.9 +18.0 83 +26 +26 душно 1003.9 990.4 +24.8 2
18 16.07 штиль 0 4000 м гроза без осадков {ливн. осадки} 10/10 600 м
[Cb cap]
+17.6 +17.3 98 +18 +18 холодно 1004.9 991.2
21 16.07 ЮЗ 1 4000 м дымка {гроза} 10/10 300 м
[St]
+17.5 +17.2 98 +19 +19 прохладно 1005.6 991.9
00 17.07 З 2 4000 м дымка {гроза} 10/10 300 м
[St]
+17.0 +16.7 98 +17 +17 прохладно 1006.2 992.4
03 17.07 З 2 4000 м дымка 8/8 300 м
[St]
+17.2 +16.9 98 +18 +18 прохладно 1006.5 992.8 +16.8 10
06 17.07 ЮЗ 2 10 км 6/6 1000 м
[Sc]
+21.0 +17.5 80 +26 +30 душно 1007.2 993.6
09 17.07 З 3 20 км 6/4 1000 м
[Cu med, cong Ci fib]
+25.7 +14.9 51 +28 +37 жарко 1006.9 993.5
12 17.07 З 2 20 км 8/5 1000 м
[Cu med, cong Ci fib]
+27.0 +13.7 44 +29 +34 жарко 1006.4 993.1
15 17.07 З 2 20 км 6/4 1000 м
[Cu med, cong Ci fib]
+27.0 +12.4 40 +28 +30 жарко 1006.0 992.7 +27.9
18 17.07 штиль 0 10 км ясно +18.8 +16.8 88 +20 +20 прохладно 1007.3 993.6
21 17.07 ЮЗ 1 н/о н/о +16.5 +15.6 94 +17 +17 холодно 1008.0 994.2
00 18.07 штиль 0 1000 м дымка ясно +14.8 +14.8 100 +14 +14 холодно 1007.8 993.9
03 18.07 штиль 0 2000 м дымка ясно +15.9 +15.9 100 +16 +17 холодно 1008.1 994.3 +14.5
06 18.07 СВ 1 20 км ясно +25.9 +13.3 46 +28 +40 жарко 1008.5 995.1
09 18.07 Ю 1 20 км 9/8 1000 м
[Sc diur, vesp Ac trans]
+27.5 +10.9 35 +28 +31 жарко 1008.6 995.2
12 18.07 Ю 1 20 км 10/10 1000 м
[Sc]
+23.8 +15.0 58 +27 +27 жарко 1009.6 996.1
15 18.07 Ю 1 20 км 10/10 1000 м
[Sc]
+22.5 +16.1 67 +27 +27 душно 1010.4 996.8 +27.7
18 18.07 штиль 0 10 км 9/3 1000 м
[Sc Ac cast]
+18.4 +16.9 91 +19 +19 холодно 1011.5 997.7
21 18.07 штиль 0 1000 м дымка ясно +15.7 +15.7 100 +15 +15 холодно 1012.3 998.4
00 19.07 штиль 0 1000 м дымка ясно +14.6 +14.6 100 +14 +14 холодно 1012.9 998.9
03 19.07 штиль 0 500 м туман ясно +15.7 +15.7 100 +15 +17 очень
холодно
1013.7 999.8 +14.3
06 19.07 ЮЗ 1 20 км {туман} ясно +22.0 +17.6 76 +27 +38 душно 1014.2 1000.6

 

Местоположение метеостанции Шахты (Ростовская область, Россия): широта 47.70 долгота 40.27 высота над уровнем моря 117 м.

В архиве по умолчанию представлена погода в Шахтах за последнюю неделю. Архивные данные за месяц целиком и за предыдущие месяцы, начиная с января 2011 года, Вы можете получить, выбрав интересующий диапазон дат из раскрывающегося списка и нажав кнопку "Ввод!".


*Определитесь, кто Вы:
робот инопланетянин человек

Внимание! Время в таблицах - всемирное. Для получения местного времени необходимо прибавить поправку, которая равна 3 ч.

Смотрите также архив погоды в соседних городах и на ближайших метеорологических станциях:

Погода в Аэропорту Платов (Ростовская область, Россия) (35 км)
Погода в Семикаракорске (Ростовская область, Россия) (47 км)
Погода в Ростове-на-Дону (Ростовская область, Россия) (59 км)
Погода в Константиновске (Ростовская область, Россия) (64 км)
Погода в Каменск-Шахтинском (Ростовская область, Россия) (67 км)
Погода в Белой Калитве (Ростовская область, Россия) (72 км)
Погода в Зерноград (Ростовская область, Россия) (95 км)
Погода в Матвеевом Кургане (Ростовская область, Россия) (105 км)
Погода в Таганроге (Ростовская область, Россия) (117 км)
Погода в Маргаритово (Ростовская область, Россия) (136 км)

Пояснения к столбцам:

Ветер - указаны скорость ветра в м/с - средняя за 10 мин, порывы в срок и между сроками (в фигурных скобках) и направление, откуда дует ветер: С - северный, СВ - северо-восточный, В - восточный, ЮВ - юго-восточный, Ю - южный, ЮЗ - юго-западный, З - западный, СЗ - северо-западный.
Видимость - горизонтальная дальность видимости в метрах или километрах. При видимости от 1 до 10 км при отсутствии осадков обычно наблюдается дымка, при ухудшении видимости до 1 км и менее - туман. В сухую погоду видимость может ухудшаться дымом, пылью или мглою.
Явления - указаны атмосферные явления, наблюдавшиеся в срок или в последний час перед сроком; фигурными скобками обозначены явления, наблюдавшиеся между сроками (за 1-3 часа до срока); квадратными скобками обозначены град или гололедные отложения с указанием их диаметра в мм.
Облачность - указаны через наклонную черту общая и нижняя облачность в баллах и высота нижней границы облаков в метрах; квадратными скобками обозначены формы облаков: Ci - перистые, Cs - перисто-слоистые, Cc - перисто-кучевые, Ac - высококучевые, As - высокослоистые, Sc - слоисто-кучевые, Ns - слоисто-дождевые, Cu - кучевые, Cb - кучево-дождевые. Подробнее классификацию облаков см. в Атласе облаков (PDF).
T - Температура воздуха - температура, измеренная на высоте 2 м над землей.
Td - Температура точки росы - температура, при понижении до которой содержащийся в воздухе водяной пар достигнет насыщения.
f - Относительная влажность воздуха - влажноcть воздуха, измеренная на высоте 2 м над землей.
Te - Эффективная температура - температура, которую ощущает одетый по сезону человек в тени. Характеристика душности погоды. При расчете учитывается влияние влажности воздуха и скорости ветра на теплоощущения человека.
Tes - Эффективная температура на солнце - температура, которую ощущает человек, с поправкой на солнечный нагрев. Характеристика знойности погоды. Зависит от высоты солнца над горизонтом, облачности и скорости ветра. Ночью, в пасмурную погоду, а также при ветре 12 м/с и более поправка равна нулю.
P - Атмосферное давление - приведенное к уровню моря атмосферное давление.
Po - Атмосферное давление - измеренное на уровне метеостанции атмосферное давление.
Tmin - Минимальная температура - минимум температуры воздуха на высоте 2 м над землей.
Tmax - Максимальная температура - максимум температуры воздуха на высоте 2 м над землей.
R - Количество осадков - Количество выпавших осадков за период времени, мм. При наведении курсора мыши на число - период времени, за который выпало указанное количество осадков.
R24 - Количество осадков - Количество выпавших осадков за 24 часа, мм.
S - Снежный покров - Высота снежного покрова, см. При наведении курсора мыши на число - состояние снежного покрова и степень покрытия местности в баллах.